ARABSAT 4B

导读

ARABSAT-4B是由欧洲航空防务和航天公司为阿拉伯卫星通信组织制造的第四代商业通信卫星,于2006年11月8日由俄罗斯“质子-M”运载火箭在拜科努尔发射场发射升空,经轨道调整后进入预定轨道。卫星重3.3吨,设计寿命15年,可覆盖北非、中东及西欧部分地区,提供数字卫星电视转播与电话通信服务。

基本信息
目录编号:
29526
目录名称:
ARABSAT 4B
国际标识:
2006-051A
轨道中心:
EARTH
卫星名称:
ARABSAT 4B
卫星全名:
--
卫星状态:
在轨 (已飞行7165 天)
发射日期:
2006-11-08 UTC
国别 :
(ASCO)
星等 :
--
轨道信息
数据来源 国际轨道数据 AOE轨道数据
星历时间 2026-06-20T14:08:57+0800
1天前
查看轨道信息
2026-06-21T10:00:00+0800
8小时前
查看轨道信息
半长轴 42164.448km 42164.42km
偏心率 0.0004839 0.0005006
轨道倾角 2.014° 2.016°
近地点辐角 359.070° 359.919°
升交点赤经 81.091° 81.073°
平近点角 314.979° 252.729°
近地点 35765.907km 35765.175km
远地点 35806.715km 35807.391km
周期 1436.082分钟 1436.081分钟
每日圈数 1.002728 1.002729
详细信息
使用方式:
暂无
2D轨道图
3D轨道图
轨道高度分析图
轨道倾角分析图
轨道综合分析图
查看轨道综合分析图